{"data":{"norad_id":65074,"intl_designator":"2025-165U","name":"STARLINK-34780","alt_names":[],"object_type":"PAYLOAD","status":"ACTIVE","operator":null,"country":"US","launch_date":"2025-07-31","launch_site_code":"AFWTR","launch_vehicle":null,"mission":null,"orbit_class":"UNKNOWN","rcs_meters":null,"size_class":null,"mass_kg":null,"dimensions":null,"purposes":["comms"],"wikipedia_slug":null,"has_3d_model":false,"image_url":null,"decayed_at":null,"tle_current":{"epoch":"2026-09-20T12:03:27.061920Z","epoch_age_seconds":120030,"freshness":"FRESH","line1":"1 65074U 25165U   26263.50239655  .00017976  00000+0  55754-3 0  9993","line2":"2 65074  97.2857 334.6904 0001506  80.9752 279.1662 15.33460118 64122","mean_motion":15.33460118,"eccentricity":0.0001506,"inclination_deg":97.2857,"raan_deg":334.6904,"arg_perigee_deg":80.9752,"mean_anomaly_deg":279.1662,"bstar":0.00055754,"rev_number":6412,"period_min":93.905278859036,"perigee_km":464.46754285583,"apogee_km":466.52884577636,"semimajor_km":6843.6351943161,"source":"CELESTRAK","updated_at":"2026-09-21T09:00:35.520266Z"}}}